TimeMDT,TemperatureF,Dew PointF,Humidity,Sea Level PressureIn,VisibilityMPH,Wind Direction,Wind SpeedMPH,Gust SpeedMPH,PrecipitationIn,Events,Conditions,WindDirDegrees,DateUTC
12:53 AM,42.1,15.1,34,30.00,10.0,Calm,Calm,-,N/A,,Clear,0,2012-10-09 06:53:00
2:53 AM,39.0,16.0,39,29.99,10.0,North,5.8,-,N/A,,Clear,10,2012-10-09 08:53:00
3:53 AM,37.9,16.0,41,29.99,10.0,Calm,Calm,-,N/A,,Clear,0,2012-10-09 09:53:00
4:53 AM,32.0,15.1,50,30.04,10.0,NE,8.1,-,N/A,,Partly Cloudy,50,2012-10-09 10:53:00
5:53 AM,32.0,16.0,52,30.04,10.0,NE,3.5,-,N/A,,Clear,50,2012-10-09 11:53:00
6:53 AM,33.1,16.0,50,30.07,10.0,Calm,Calm,-,N/A,,Clear,0,2012-10-09 12:53:00
7:53 AM,33.1,15.1,48,30.09,10.0,Calm,Calm,-,N/A,,Clear,0,2012-10-09 13:53:00
8:53 AM,45.0,18.0,34,30.06,10.0,ENE,3.5,-,N/A,,Clear,60,2012-10-09 14:53:00
9:53 AM,50.0,21.9,33,30.07,10.0,Variable,3.5,-,N/A,,Clear,0,2012-10-09 15:53:00
10:53 AM,55.9,19.0,24,30.03,10.0,East,8.1,-,N/A,,Clear,80,2012-10-09 16:53:00
11:53 AM,64.0,19.9,18,30.02,10.0,Calm,Calm,-,N/A,,Clear,0,2012-10-09 17:53:00
12:53 PM,69.1,23.0,18,29.96,10.0,WSW,21.9,28.8,N/A,,Clear,250,2012-10-09 18:53:00
1:53 PM,70.0,21.0,16,29.95,10.0,WSW,18.4,24.2,N/A,,Clear,250,2012-10-09 19:53:00
2:53 PM,72.0,15.1,11,29.91,10.0,SW,18.4,28.8,N/A,,Clear,230,2012-10-09 20:53:00
3:53 PM,71.1,19.9,14,29.92,10.0,WSW,15.0,23.0,N/A,,Clear,240,2012-10-09 21:53:00
4:53 PM,70.0,19.9,15,29.96,10.0,SW,19.6,28.8,N/A,,Clear,230,2012-10-09 22:53:00
5:53 PM,66.9,19.9,17,29.98,10.0,WSW,16.1,-,N/A,,Clear,240,2012-10-09 23:53:00
6:53 PM,63.0,21.0,20,30.01,10.0,WSW,13.8,-,N/A,,Clear,240,2012-10-10 00:53:00
7:53 PM,59.0,21.9,24,30.05,10.0,West,9.2,-,N/A,,Clear,260,2012-10-10 01:53:00
8:53 PM,57.9,21.9,25,30.02,10.0,SW,6.9,-,N/A,,Clear,230,2012-10-10 02:53:00
9:53 PM,55.9,21.9,27,30.04,10.0,Calm,Calm,-,N/A,,Clear,0,2012-10-10 03:53:00
10:53 PM,46.9,21.9,37,30.05,10.0,ENE,4.6,-,N/A,,Clear,70,2012-10-10 04:53:00
11:53 PM,45.0,21.0,39,30.04,10.0,North,4.6,-,N/A,,Clear,10,2012-10-10 05:53:00